Location: Newark
(4.9167°N, 114.9167°E)
Time: 00:49:18
(UTC+00:00)

Envisat - Visible Passes

Search period start: 17 October 2019 00:00
Search period end: 27 October 2019 00:00
Orbit: 764 x 766 km, 98.1° (Epoch: 16 October)

Date Brightness Start Highest point End Pass type
(mag) Time Alt. Az. Time Alt. Az. Time Alt. Az.
17 Oct 3.0 10:50:26 10° SSE 10:55:31 89° ENE 11:00:35 10° NNW visible
18 Oct 5.9 11:54:45 10° SW 11:57:38 15° W 12:00:31 10° WNW visible
19 Oct 4.2 11:16:10 10° S 11:20:57 43° WSW 11:25:45 10° NNW visible
20 Oct 3.0 10:39:15 10° SSE 10:44:17 65° ENE 10:49:18 10° N visible
21 Oct 5.5 11:42:40 10° SSW 11:46:24 21° WSW 11:50:08 10° NW visible
22 Oct 3.6 11:04:43 10° S 11:09:43 59° WSW 11:14:42 10° NNW visible
23 Oct 3.2 10:28:11 10° SSE 10:33:03 47° ENE 10:37:54 10° N visible
24 Oct 5.0 11:30:51 10° SSW 11:35:09 28° WSW 11:39:27 10° NW visible
25 Oct 3.1 10:53:23 10° S 10:58:28 82° WSW 11:03:33 10° NNW visible
26 Oct 3.6 10:17:14 10° SE 10:21:49 35° ENE 10:26:23 10° NNE visible
26 Oct 6.1 11:58:11 10° SW 12:00:36 13° W 12:03:00 10° WNW visible
